DW9051 Weather Reports


time (UTC)temp
F
wind
direction
speed
knots
gust
knots
rain 1hr
in
rain 24hr
in
rain mn
in
humidity
%
barometer
mb
20260506221519 54 101 0.9 2.6 0.00 0.00 0.00 87 1021.1
20260506220519 54 117 2.6 3.5 0.00 0.00 0.00 87 1020.6
20260506215519 54 117 2.6 4.3 0.00 0.00 0.00 87 1020.8
20260506214539 54 139 1.7 3.5 0.00 0.00 0.00 87 1020.9
20260506213519 54 134 1.7 2.6 0.00 0.00 0.00 87 1020.8
20260506212519 54 177 3.5 4.3 0.00 0.00 0.00 87 1020.8
20260506211516 54 174 3.5 5.2 0.00 0.00 0.00 88 1020.7
20260506210519 54 176 5.2 7.0 0.00 0.00 0.00 89 1020.6
20260506205520 54 212 4.3 7.0 0.00 0.00 0.00 91 1020.6
20260506204540 54 188 4.3 6.1 0.00 0.00 0.00 92 1020.6
20260506203520 53 152 6.1 7.8 0.00 0.00 0.00 92 1020.3
20260506202517 53 152 7.0 9.6 0.00 0.00 0.00 92 1020.3
20260506201517 53 148 6.1 8.7 0.00 0.00 0.00 93 1020.3
20260506200521 53 144 7.8 9.6 0.00 0.00 0.00 93 1020.2
20260506195520 53 148 7.0 9.6 0.00 0.00 0.00 94 1020.3
20260506194521 53 148 6.1 7.8 0.00 0.00 0.00 94 1020.3
20260506193517 53 145 7.8 10.4 0.00 0.00 0.00 95 1020.1
20260506192518 53 144 10.4 12.2 0.00 0.00 0.00 95 1019.9
20260506191518 53 145 8.7 12.2 0.00 0.00 0.00 96 1020.0
20260506190541 53 144 6.1 8.7 0.00 0.00 0.00 96 1020.1
20260506185521 53 147 7.0 9.6 0.00 0.00 0.00 96 1020.0
20260506184521 52 146 7.0 8.7 0.00 0.00 0.00 96 1019.9
20260506183539 52 144 7.0 9.6 0.00 0.00 0.00 96 1019.8
20260506182519 52 142 10.4 13.9 0.00 0.00 0.00 96 1019.8
20260506181519 52 146 10.4 13.0 0.00 0.00 0.00 96 1019.6
20260506180519 52 145 11.3 13.9 0.00 0.00 0.00 96 1019.6
20260506175519 52 147 11.3 13.9 0.00 0.00 0.00 96 1019.6
20260506174520 52 146 11.3 14.8 0.00 0.00 0.00 96 1019.4
20260506173520 52 145 10.4 13.0 0.00 0.00 0.00 96 1019.6
20260506172517 52 144 11.3 14.8 0.00 0.00 0.00 96 1019.2
20260506171520 52 144 12.2 14.8 0.00 0.00 0.00 97 1019.1
20260506170520 52 144 11.3 13.9 0.00 0.00 0.00 97 1019.2
20260506165540 52 143 10.4 12.2 0.00 0.00 0.00 97 1019.4
20260506164517 52 142 11.3 13.9 0.00 0.00 0.00 97 1019.2
20260506163517 52 142 10.4 13.0 0.00 0.00 0.00 97 1019.2
20260506162517 52 143 8.7 12.2 0.00 0.00 0.00 97 1019.4
20260506161521 52 145 8.7 11.3 0.00 0.00 0.00 97 1019.3
20260506160521 52 143 11.3 13.0 0.00 0.00 0.00 97 1019.1
20260506155518 52 142 12.2 13.9 0.00 0.00 0.00 96 1019.0
20260506154518 52 143 12.2 13.9 0.00 0.00 0.00 96 1018.8
20260506153518 52 143 13.9 17.4 0.00 0.00 0.00 96 1018.6
20260506152538 52 142 14.8 18.2 0.00 0.00 0.00 96 1018.6
20260506151518 52 142 13.0 16.5 0.00 0.00 0.00 96 1018.7
20260506150518 52 142 12.2 15.6 0.00 0.00 0.00 97 1018.8
20260506145519 52 141 11.3 13.0 0.00 0.00 0.00 97 1018.8
20260506144519 52 142 7.8 9.6 0.00 0.00 0.00 96 1019.1
20260506143519 52 141 11.3 13.9 0.00 0.00 0.00 96 1018.6
20260506142519 52 141 11.3 13.9 0.00 0.00 0.00 96 1018.4
20260506141519 53 140 10.4 13.0 0.00 0.00 0.00 96 1018.5
20260506140519 53 140 9.6 11.3 0.00 0.00 0.00 96 1018.5
20260506135519 52 139 6.1 7.8 0.00 0.00 0.00 96 1018.5
20260506134519 52 141 6.1 7.0 0.00 0.00 0.00 96 1018.4
20260506133519 52 152 1.7 3.5 0.00 0.00 0.00 97 1018.4
20260506132519 52 162 0.9 2.6 0.00 0.00 0.00 96 1018.4
20260506131519 52 294 0.9 2.6 0.00 0.00 0.00 96 1018.5
20260506130520 52 167 0.9 2.6 0.00 0.00 0.00 96 1018.3
20260506125520 52 271 0.0 1.7 0.00 0.00 0.00 96 1018.3
20260506124520 52 175 0.0 1.7 0.00 0.00 0.00 96 1018.1
20260506123517 52 155 0.9 2.6 0.00 0.00 0.00 96 1018.1
20260506122520 51 145 2.6 6.1 0.00 0.00 0.00 96 1017.9
20260506121520 51 265 0.0 0.9 0.00 0.00 0.00 96 1018.0
20260506120520 51 165 0.0 1.7 0.00 0.00 0.00 96 1018.0
20260506115520 51 186 0.0 0.9 0.00 0.00 0.00 96 1017.9
20260506114537 51 232 0.0 1.7 0.00 0.00 0.00 96 1017.9
20260506113517 51 235 0.9 2.6 0.00 0.00 0.00 96 1017.8
20260506112520 51 142 2.6 7.8 0.00 0.00 0.00 96 1017.7
20260506111540 51 189 0.0 0.9 0.00 0.00 0.00 96 1017.6
20260506110518 51 178 1.7 3.5 0.00 0.00 0.00 96 1017.5
20260506105538 50 189 0.9 1.7 0.00 0.00 0.00 96 1017.4
20260506104517 50 298 0.9 1.7 0.00 0.00 0.00 96 1017.2
20260506103558 50 313 0.9 1.7 0.00 0.00 0.00 96 1017.1
20260506102542 49 331 1.7 2.6 0.00 0.00 0.00 96 1017.0
20260506101519 49 320 1.7 3.5 0.00 0.00 0.00 96 1016.8
20260506100519 49 323 0.9 1.7 0.00 0.00 0.00 96 1016.6
20260506095518 49 296 0.0 0.9 0.00 0.00 0.00 95 1016.5
20260506094519 49 291 0.0 1.7 0.00 0.00 0.00 95 1016.5
20260506093519 49 322 1.7 4.3 0.00 0.00 0.00 95 1016.6
20260506092539 49 297 0.9 4.3 0.00 0.00 0.00 95 1016.5
20260506091518 49 312 0.9 1.7 0.00 0.00 0.00 95 1016.5
20260506090539 49 314 0.9 1.7 0.00 0.00 0.00 95 1016.5
20260506085519 49 315 0.9 2.6 0.00 0.00 0.00 94 1016.5
20260506084519 50 302 0.9 1.7 0.00 0.00 0.00 94 1016.3
20260506083539 50 298 0.0 1.7 0.00 0.00 0.00 94 1016.2
20260506082519 50 282 0.0 0.9 0.00 0.00 0.00 94 1016.2
20260506081519 50 253 0.0 0.9 0.00 0.00 0.00 94 1016.3
20260506080520 50 250 0.0 1.7 0.00 0.00 0.00 93 1016.1
20260506073517 50 238 0.0 0.9 0.00 0.00 0.00 93 1015.7
20260506072540 51 318 0.9 1.7 0.00 0.00 0.00 92 1015.7
20260506071520 51 283 0.0 0.9 0.00 0.00 0.00 92 1015.6
20260506070540 51 257 0.0 0.9 0.00 0.00 0.00 92 1015.6
20260506061518 53 359 1.7 4.3 0.00 0.00 0.00 90 1015.6
20260506060518 53 4 0.9 2.6 0.00 0.00 0.00 90 1015.5
20260506050519 53 326 0.9 2.6 0.00 0.00 0.00 90 1015.0
20260506044519 53 315 0.9 1.7 0.00 0.00 0.00 89 1014.7
20260506043519 54 314 0.9 2.6 0.00 0.00 0.00 88 1014.7
20260506042519 54 309 0.9 2.6 0.00 0.00 0.00 87 1014.5
20260506041519 55 320 0.0 1.7 0.00 0.00 0.00 87 1014.4
20260506040519 56 346 0.0 1.7 0.00 0.00 0.00 86 1014.4
20260506035519 56 334 0.0 1.7 0.00 0.00 0.00 85 1014.3
20260506034520 57 324 0.9 1.7 0.00 0.00 0.00 85 1014.4
20260506033519 57 320 0.9 1.7 0.00 0.00 0.00 85 1014.4
20260506032520 57 342 1.7 3.5 0.00 0.00 0.00 85 1014.4
20260506031520 57 329 0.9 2.6 0.00 0.00 0.00 85 1014.4
20260506030517 58 327 0.9 2.6 0.00 0.00 0.00 85 1014.5
20260506025520 58 318 0.9 2.6 0.00 0.00 0.00 85 1014.3
20260506024540 59 357 0.9 1.7 0.00 0.00 0.00 85 1014.3
20260506023540 59 301 0.9 1.7 0.00 0.00 0.00 85 1014.3
20260506022537 59 78 0.9 2.6 0.00 0.00 0.00 85 1014.3
20260506021518 59 124 0.9 1.7 0.00 0.00 0.00 84 1014.3
20260506020517 59 119 1.7 2.6 0.00 0.00 0.00 83 1014.4
20260506015521 59 111 2.6 3.5 0.00 0.00 0.00 83 1014.6
20260506014518 60 146 2.6 4.3 0.00 0.00 0.00 83 1014.7
20260506013518 59 156 4.3 6.1 0.00 0.00 0.00 84 1014.7
20260506012518 59 160 4.3 6.1 0.00 0.00 0.00 83 1014.7
20260506011518 60 157 5.2 7.0 0.00 0.00 0.00 82 1014.8
20260506010558 60 158 6.1 8.7 0.00 0.00 0.00 82 1014.8
20260506005518 60 171 6.1 10.4 0.00 0.00 0.00 82 1014.9
20260506004518 59 177 5.2 7.8 0.00 0.00 0.00 83 1015.0
20260506003519 59 178 4.3 7.0 0.00 0.00 0.00 85 1015.0
20260506002519 58 170 4.3 6.1 0.00 0.00 0.00 86 1015.0
20260506001519 58 170 4.3 6.1 0.00 0.00 0.00 87 1015.0
20260506000519 58 168 5.2 7.0 0.00 0.00 0.00 88 1015.2
20260505235519 58 169 5.2 7.0 0.00 0.00 0.00 88 1015.3
20260505234519 57 166 5.2 7.0 0.00 0.00 0.00 89 1015.4
20260505233519 57 162 5.2 7.0 0.00 0.00 0.00 89 1015.6
20260505232520 57 172 4.3 7.0 0.00 0.00 0.00 89 1015.7
20260505231517 57 159 5.2 7.0 0.00 0.00 0.00 90 1015.7
20260505230520 57 166 4.3 7.0 0.00 0.00 0.00 90 1015.9
20260505225540 57 158 6.1 8.7 0.00 0.00 0.00 91 1015.9
20260505224520 57 158 6.1 8.7 0.00 0.00 0.00 90 1016.0
20260505223520 57 155 5.2 7.8 0.00 0.00 0.00 90 1016.0
20260505222537 57 152 5.2 7.8 0.00 0.00 0.00 90 1016.2